Tracking 19651 objects as of 22-Apr-2019
HD Live streaming from Space Station
objects crossing your sky now

CZ-4 DEB

Track CZ-4 DEB now!
10-day predictions


NORAD ID: 26122
Int'l Code: 1999-057J
Perigee: 720.6 km
Apogee: 1,531.0 km
Inclination: 98.9 °
Period: 107.7 minutes
Semi major axis: 7496 km
RCS: 0.104 m2 (medium)
Launch date: October 14, 1999
Source: People's Republic of China (PRC)
Launch site: Taiyaun Space Center, China (TSC)

Note: This is SATELLITE DEBRIS
aabbcc
Your satellite tracking list
Your tracking list is empty




NASA's NSSDC Master Catalog

Two Line Element Set (TLE):
1 26122U 99057J   19111.69758215 +.00000108 +00000-0 +11566-3 0  9990
2 26122 098.8913 143.4660 0540519 144.4186 336.2334 13.37478417930167
Source of the keplerian elements: AFSPC